Precipitable_Water
0.85 0.86 0.88 0.90 0.91 0.91 0.85 0.81 0.83 0.85 0.82 0.82 0.78 0.80 0.80 0.81 0.80 0.79 0.78 0.75 0.68 0.64 0.62 0.63 0.62 0.59 0.62 0.63 0.65 0.69 0.70 0.76 0.82 0.87 0.90 0.93 1.01 1.10 1.22 1.34 1.40 1.46 1.48
0.96 0.96 0.97 0.93 0.89 0.86 0.79 0.76 0.74 0.76 0.75 0.74 0.70 0.71 0.73 0.72 0.75 0.76 0.80 0.79 0.72 0.68 0.70 0.64 0.60 0.56 0.56 0.57 0.61 0.63 0.65 0.66 0.69 0.77 0.81 0.86 0.93 0.98 1.12 1.24 1.32 1.45 1.46
1.00 0.98 0.94 0.90 0.84 0.81 0.77 0.75 0.71 0.70 0.66 0.65 0.63 0.67 0.69 0.68 0.66 0.66 0.68 0.74 0.73 0.70 0.68 0.66 0.68 0.65 0.62 0.60 0.57 0.60 0.64 0.65 0.63 0.64 0.70 0.76 0.79 0.85 0.96 1.02 1.22 1.39 1.45
0.99 0.96 0.89 0.82 0.78 0.75 0.72 0.69 0.65 0.59 0.59 0.57 0.56 0.57 0.57 0.59 0.59 0.65 0.70 0.69 0.68 0.68 0.68 0.72 0.67 0.67 0.70 0.68 0.67 0.63 0.66 0.68 0.70 0.63 0.64 0.69 0.75 0.80 0.85 0.94 1.21 1.32 1.40
0.91 0.86 0.79 0.76 0.73 0.69 0.66 0.61 0.57 0.55 0.53 0.52 0.51 0.52 0.50 0.49 0.48 0.53 0.55 0.61 0.62 0.62 0.61 0.65 0.68 0.70 0.65 0.66 0.70 0.71 0.68 0.68 0.71 0.72 0.68 0.67 0.71 0.75 0.80 0.85 1.08 1.24 1.32
0.81 0.79 0.77 0.72 0.66 0.61 0.58 0.55 0.52 0.52 0.50 0.48 0.46 0.42 0.41 0.41 0.42 0.49 0.47 0.50 0.52 0.54 0.56 0.59 0.61 0.62 0.65 0.68 0.68 0.68 0.71 0.71 0.71 0.73 0.72 0.71 0.68 0.69 0.71 0.76 0.82 1.04 1.24
0.76 0.69 0.62 0.59 0.60 0.56 0.52 0.50 0.49 0.47 0.46 0.49 0.42 0.40 0.40 0.42 0.42 0.46 0.51 0.51 0.50 0.52 0.54 0.55 0.58 0.60 0.65 0.61 0.64 0.66 0.70 0.74 0.75 0.73 0.74 0.73 0.70 0.67 0.65 0.68 0.74 0.78 0.97
0.63 0.60 0.59 0.56 0.54 0.49 0.48 0.49 0.48 0.44 0.43 0.45 0.39 0.35 0.30 0.34 0.43 0.47 0.48 0.49 0.49 0.51 0.50 0.51 0.52 0.51 0.54 0.62 0.66 0.65 0.67 0.66 0.70 0.76 0.77 0.75 0.72 0.67 0.66 0.63 0.66 0.71 0.75
0.59 0.57 0.55 0.54 0.53 0.51 0.47 0.47 0.47 0.46 0.41 0.46 0.46 0.40 0.31 0.29 0.35 0.40 0.40 0.46 0.44 0.44 0.46 0.46 0.46 0.45 0.44 0.51 0.59 0.68 0.69 0.69 0.63 0.67 0.72 0.75 0.74 0.73 0.66 0.61 0.62 0.66 0.70
0.58 0.56 0.54 0.52 0.50 0.49 0.47 0.46 0.44 0.41 0.38 0.33 0.37 0.38 0.37 0.36 0.27 0.25 0.33 0.32 0.36 0.34 0.34 0.37 0.40 0.38 0.39 0.39 0.46 0.59 0.66 0.65 0.70 0.70 0.69 0.71 0.74 0.73 0.66 0.59 0.59 0.63 0.67
0.55 0.54 0.57 0.57 0.53 0.47 0.45 0.43 0.39 0.33 0.34 0.34 0.34 0.35 0.35 0.34 0.36 0.30 0.23 0.28 0.33 0.32 0.31 0.33 0.36 0.36 0.34 0.37 0.40 0.45 0.59 0.62 0.63 0.74 0.74 0.72 0.68 0.68 0.67 0.64 0.60 0.60 0.67
0.58 0.63 0.58 0.50 0.49 0.46 0.42 0.41 0.38 0.31 0.30 0.30 0.31 0.32 0.32 0.30 0.30 0.30 0.28 0.27 0.27 0.31 0.35 0.35 0.37 0.37 0.36 0.36 0.38 0.39 0.51 0.59 0.64 0.69 0.72 0.74 0.70 0.70 0.70 0.69 0.66 0.64 0.65
0.50 0.47 0.44 0.44 0.44 0.43 0.41 0.38 0.32 0.30 0.28 0.25 0.25 0.24 0.27 0.27 0.29 0.28 0.27 0.26 0.27 0.26 0.29 0.36 0.40 0.42 0.42 0.38 0.37 0.40 0.45 0.55 0.59 0.66 0.71 0.70 0.72 0.69 0.65 0.65 0.61 0.63 0.68
0.40 0.45 0.47 0.47 0.43 0.46 0.40 0.34 0.29 0.28 0.28 0.25 0.21 0.21 0.22 0.23 0.23 0.23 0.23 0.24 0.20 0.23 0.27 0.28 0.36 0.41 0.43 0.38 0.39 0.41 0.42 0.51 0.54 0.57 0.62 0.63 0.68 0.68 0.67 0.63 0.58 0.58 0.61
0.42 0.46 0.50 0.49 0.52 0.46 0.39 0.36 0.31 0.27 0.27 0.25 0.24 0.24 0.23 0.21 0.19 0.19 0.19 0.19 0.20 0.16 0.16 0.25 0.32 0.37 0.42 0.39 0.39 0.39 0.40 0.44 0.47 0.52 0.58 0.64 0.66 0.62 0.66 0.72 0.67 0.62 0.57
0.45 0.46 0.43 0.48 0.43 0.40 0.38 0.32 0.28 0.29 0.25 0.24 0.24 0.23 0.23 0.21 0.20 0.21 0.20 0.19 0.18 0.18 0.15 0.24 0.28 0.35 0.41 0.40 0.36 0.38 0.40 0.43 0.42 0.47 0.56 0.56 0.60 0.63 0.63 0.66 0.65 0.61 0.60
0.43 0.42 0.41 0.39 0.42 0.36 0.31 0.26 0.24 0.25 0.22 0.22 0.23 0.23 0.22 0.23 0.22 0.21 0.21 0.20 0.18 0.18 0.15 0.17 0.22 0.30 0.35 0.36 0.37 0.36 0.37 0.37 0.41 0.41 0.46 0.55 0.56 0.58 0.59 0.60 0.58 0.57 0.61
0.40 0.41 0.43 0.41 0.33 0.28 0.25 0.24 0.24 0.24 0.22 0.21 0.21 0.22 0.22 0.22 0.20 0.21 0.20 0.19 0.18 0.19 0.19 0.16 0.19 0.24 0.27 0.32 0.35 0.37 0.34 0.35 0.36 0.38 0.40 0.44 0.56 0.58 0.56 0.54 0.53 0.49 0.48
0.33 0.37 0.37 0.29 0.25 0.25 0.24 0.23 0.22 0.22 0.22 0.23 0.23 0.23 0.21 0.19 0.19 0.20 0.20 0.21 0.23 0.24 0.23 0.20 0.18 0.24 0.23 0.28 0.30 0.33 0.33 0.33 0.34 0.36 0.38 0.41 0.50 0.56 0.56 0.53 0.48 0.47 0.46
0.35 0.31 0.29 0.24 0.24 0.25 0.24 0.22 0.22 0.22 0.23 0.24 0.23 0.22 0.21 0.21 0.21 0.21 0.21 0.24 0.26 0.26 0.26 0.24 0.21 0.21 0.23 0.22 0.23 0.24 0.25 0.28 0.29 0.33 0.34 0.37 0.43 0.50 0.53 0.49 0.45 0.45 0.42
0.34 0.29 0.26 0.23 0.27 0.25 0.23 0.23 0.23 0.23 0.23 0.22 0.22 0.22 0.23 0.24 0.25 0.24 0.23 0.24 0.24 0.25 0.25 0.24 0.24 0.23 0.22 0.20 0.18 0.20 0.20 0.22 0.24 0.27 0.29 0.32 0.35 0.41 0.42 0.46 0.46 0.44 0.43
0.33 0.22 0.26 0.28 0.26 0.26 0.26 0.25 0.24 0.23 0.23 0.22 0.21 0.22 0.24 0.25 0.24 0.24 0.25 0.26 0.26 0.24 0.23 0.23 0.23 0.23 0.25 0.24 0.23 0.20 0.19 0.16 0.14 0.24 0.25 0.27 0.33 0.33 0.35 0.38 0.41 0.41 0.42
0.30 0.29 0.30 0.26 0.27 0.28 0.27 0.25 0.26 0.25 0.23 0.22 0.21 0.22 0.24 0.25 0.25 0.26 0.25 0.25 0.25 0.25 0.26 0.24 0.23 0.24 0.23 0.24 0.24 0.21 0.19 0.17 0.16 0.17 0.22 0.22 0.28 0.30 0.35 0.34 0.35 0.38 0.38
0.37 0.32 0.27 0.28 0.29 0.28 0.26 0.25 0.24 0.21 0.19 0.19 0.19 0.22 0.24 0.25 0.26 0.25 0.26 0.25 0.25 0.24 0.24 0.25 0.26 0.26 0.25 0.25 0.24 0.23 0.21 0.19 0.20 0.20 0.22 0.18 0.24 0.24 0.29 0.35 0.36 0.34 0.35
0.31 0.28 0.29 0.29 0.27 0.23 0.23 0.21 0.19 0.18 0.18 0.17 0.19 0.23 0.25 0.25 0.25 0.26 0.25 0.23 0.23 0.22 0.23 0.24 0.24 0.26 0.28 0.28 0.28 0.25 0.21 0.19 0.16 0.17 0.21 0.19 0.18 0.19 0.22 0.25 0.30 0.34 0.35
0.28 0.29 0.30 0.28 0.23 0.21 0.20 0.18 0.18 0.18 0.17 0.17 0.20 0.24 0.25 0.25 0.26 0.25 0.24 0.23 0.21 0.21 0.22 0.23 0.23 0.23 0.24 0.23 0.24 0.25 0.23 0.19 0.19 0.17 0.21 0.19 0.18 0.20 0.18 0.23 0.24 0.26 0.28
Wind_Speed
19 21 22 23 24 24 25 25 26 27 28 29 28 28 28 28 28 28 28 27 26 26 25 24 24 24 24 24 24 24 25 25 24 24 24 24 25 26 27 27 28 31 31
22 22 23 24 25 27 27 28 30 31 31 31 31 30 29 29 29 30 30 31 32 31 30 29 28 27 26 26 26 26 26 26 27 27 26 26 25 26 28 29 29 30 30
22 24 26 27 29 30 31 32 34 34 33 33 31 30 30 31 31 32 33 33 33 33 34 35 34 32 30 29 28 28 29 29 29 29 29 29 28 28 28 29 31 31 32
26 27 29 30 32 33 34 36 36 35 35 34 34 34 34 35 35 35 35 35 35 35 35 35 36 37 37 36 34 32 31 31 31 31 31 30 30 31 30 30 31 33 33
29 30 31 33 34 36 37 37 37 37 37 38 38 39 39 39 40 39 38 37 37 35 35 35 36 38 39 40 40 38 36 34 34 34 33 33 32 32 32 32 31 32 34
30 31 33 35 36 37 38 39 39 39 40 41 42 43 43 43 42 42 42 41 41 40 39 39 39 38 38 40 41 42 41 39 37 36 36 36 35 34 33 34 34 34 33
31 32 34 36 38 39 40 41 42 43 44 46 46 48 48 45 45 44 44 44 44 44 44 43 43 43 43 42 42 44 45 44 43 41 40 39 39 38 36 36 35 36 36
33 35 38 39 40 41 43 44 46 47 47 48 49 50 49 49 45 47 47 47 47 47 48 48 48 48 48 47 46 46 47 48 47 45 44 43 42 41 40 39 38 37 37
36 38 39 41 43 44 44 46 48 48 50 50 50 49 49 49 51 48 50 49 51 51 52 52 52 53 52 52 51 50 48 48 50 50 48 47 46 44 43 43 41 40 39
39 41 42 44 44 45 46 48 49 50 50 50 49 49 49 51 52 54 52 54 53 54 53 53 53 53 53 54 54 54 53 51 50 51 51 49 48 47 45 44 44 43 41
42 43 44 46 47 47 48 50 50 50 50 50 50 51 51 52 52 54 57 54 55 53 53 52 53 52 52 53 53 55 55 53 52 49 50 50 49 48 47 46 45 45 44
46 48 49 48 48 49 51 51 51 51 50 50 49 49 50 50 52 52 53 55 54 53 52 51 49 49 49 49 50 51 53 54 53 52 50 50 50 47 47 47 46 45 45
50 49 49 49 50 50 50 51 51 50 48 47 46 46 47 48 48 48 47 48 47 48 46 45 45 45 45 46 46 46 48 50 51 52 51 51 50 49 48 47 47 46 45
50 49 48 48 50 49 50 50 49 48 47 45 43 43 43 42 40 38 38 39 40 38 38 37 37 39 40 40 40 41 42 44 47 49 51 52 53 52 50 48 47 47 46
48 47 47 50 51 48 51 50 48 45 41 41 39 39 38 36 35 34 35 35 35 36 35 33 31 30 31 32 35 36 36 37 39 43 47 49 51 51 50 47 48 48 47
48 49 51 51 49 50 49 45 43 39 39 37 36 37 37 35 36 36 36 36 36 36 36 34 33 30 29 27 27 28 30 32 33 35 40 44 47 50 51 50 50 48 48
49 50 50 48 49 46 43 41 39 37 36 35 36 37 36 36 37 38 39 39 39 38 38 36 35 33 30 28 27 25 25 26 28 30 32 39 42 47 47 48 45 46 49
48 49 49 48 43 41 39 36 35 33 33 36 36 35 37 39 41 41 41 41 40 39 39 38 34 32 31 30 28 28 25 24 25 26 28 31 36 40 45 46 47 45 44
50 50 48 43 38 36 35 33 32 33 35 33 34 37 40 41 40 39 38 38 37 37 37 38 36 34 33 33 32 30 29 27 25 23 24 24 29 36 40 43 44 43 42
49 44 39 35 33 32 30 31 31 30 31 34 37 39 39 38 37 37 37 34 33 31 31 33 35 35 34 33 34 33 32 31 29 26 23 22 21 24 33 40 41 43 44
43 37 33 29 28 28 29 26 28 30 33 37 38 38 37 36 37 36 35 34 32 31 30 29 29 31 32 32 32 33 33 33 32 30 28 24 24 23 24 29 36 39 42
37 30 27 27 26 25 26 27 30 32 36 37 38 37 36 35 35 37 36 33 31 29 29 29 28 27 28 29 30 30 31 31 31 31 30 29 28 29 28 27 30 34 38
30 27 27 24 24 26 27 29 32 34 36 37 37 36 34 34 35 34 32 30 28 27 27 26 27 28 29 29 29 29 30 30 30 30 31 31 30 31 32 32 31 33 36
27 28 23 24 25 26 28 30 33 34 35 35 36 34 32 32 31 31 29 26 23 22 21 20 22 24 26 28 30 30 30 30 30 30 29 30 31 31 31 34 35 34 35
26 23 22 24 24 26 28 31 32 33 35 35 33 30 29 29 28 29 26 24 22 21 20 20 20 22 21 22 24 25 26 27 27 27 27 28 29 30 30 32 33 34 35
22 22 23 23 23 26 29 31 32 33 33 32 30 26 26 26 28 28 26 23 21 19 17 15 15 17 19 21 22 22 22 22 23 22 24 24 25 25 25 27 30 34 34
Wind_Direction
304 306 307 310 310 312 313 312 309 308 309 308 306 302 299 296 293 290 288 288 287 287 286 284 281 279 275 272 269 266 263 260 259 257 255 251 248 246 243 240 236 234 233
302 304 306 308 309 310 310 309 308 307 306 305 304 300 297 296 294 291 288 285 283 283 281 280 279 278 275 272 269 267 264 261 259 256 255 253 251 247 244 242 239 238 235
303 303 305 306 307 307 308 307 307 306 304 304 303 300 298 296 294 291 289 286 285 283 280 277 274 273 273 272 269 267 265 261 259 257 255 253 251 250 247 245 241 238 237
304 303 305 305 306 306 306 305 305 304 303 301 299 297 296 295 293 290 288 286 284 282 280 278 274 271 270 269 268 267 265 262 258 257 255 253 251 249 248 246 242 239 238
304 304 304 305 306 305 305 304 304 303 301 300 298 296 295 293 292 288 286 284 283 282 280 279 277 273 270 267 266 265 264 263 259 256 254 253 252 250 247 245 245 241 240
305 305 305 305 306 305 305 304 304 302 301 300 298 295 294 292 289 287 285 283 281 280 279 278 276 274 272 268 265 263 261 261 259 257 254 252 251 250 249 246 244 243 242
305 305 306 306 306 305 305 304 303 302 300 299 297 296 294 291 289 285 283 281 280 279 278 278 276 274 272 269 267 263 260 259 258 257 255 252 250 249 249 247 245 243 242
305 305 306 306 306 304 304 304 303 301 299 300 297 296 294 290 286 286 283 280 279 278 278 277 275 273 271 268 266 264 260 257 256 256 254 253 251 249 248 247 245 244 242
306 306 307 307 306 305 304 304 303 302 300 298 298 296 294 290 290 285 283 279 279 278 277 276 274 273 270 267 265 262 260 257 256 254 253 252 250 249 248 246 244 243 242
306 307 306 306 305 304 303 304 303 302 300 299 296 295 293 291 288 286 283 281 278 278 278 276 274 273 270 267 264 261 259 257 255 252 250 251 248 247 247 246 244 243 241
307 306 305 304 304 303 304 303 303 302 300 298 296 294 292 291 288 287 285 282 280 278 277 275 274 270 269 266 264 261 258 256 253 251 248 248 246 246 246 245 244 242 240
305 304 304 304 303 303 304 303 303 302 301 299 297 295 294 292 290 288 284 283 281 279 277 276 272 270 268 266 264 261 257 254 251 249 248 245 244 244 244 244 243 242 240
306 305 304 304 304 304 304 304 303 302 302 300 298 298 296 295 293 290 286 285 283 281 277 275 272 269 267 266 264 261 257 253 250 247 246 245 243 242 243 242 241 240 238
307 305 305 306 307 305 306 305 304 303 302 301 300 301 299 298 297 295 291 288 287 284 282 278 274 269 268 266 263 260 257 254 251 248 246 244 243 242 241 241 240 239 238
309 307 306 307 307 303 306 305 304 303 302 302 300 303 303 301 300 298 295 293 289 286 282 278 274 276 269 266 262 259 256 254 253 249 245 244 241 240 239 238 238 236 236
308 307 306 306 304 305 304 304 304 303 303 303 301 302 303 301 300 297 296 293 289 284 281 277 273 273 269 265 264 259 255 253 253 251 246 245 242 239 237 237 237 236 234
308 307 308 306 304 304 303 304 303 302 303 304 304 304 302 301 300 298 296 293 288 283 279 277 273 267 263 260 259 259 256 254 253 252 250 246 243 237 233 232 232 234 234
309 309 309 308 304 306 305 305 304 303 305 306 306 305 304 303 301 299 296 292 287 281 276 274 270 263 257 255 256 254 255 255 255 256 254 250 241 236 231 230 232 233 232
309 309 308 306 305 306 306 306 306 305 306 307 308 307 307 306 304 302 300 295 290 283 275 270 265 260 257 252 253 253 253 253 254 256 253 251 241 237 228 229 229 228 227
311 310 308 306 307 307 309 309 308 310 310 310 311 310 309 308 307 305 302 298 293 289 281 271 263 258 254 252 250 251 251 250 251 251 251 246 239 232 230 227 228 228 228
312 309 307 307 309 311 313 313 313 313 313 314 313 313 312 310 308 307 304 300 293 286 282 275 265 257 253 251 250 248 248 249 248 247 245 243 235 230 227 226 227 228 228
312 310 309 309 309 312 315 315 316 316 317 317 316 315 313 312 311 309 305 299 293 288 282 272 264 257 252 250 248 247 247 246 246 244 241 239 237 234 232 233 231 230 229
310 308 310 309 311 313 315 316 318 318 319 319 319 318 316 315 315 313 309 303 295 289 285 274 261 255 252 250 248 247 245 244 243 244 240 238 238 237 237 237 235 234 232
305 307 306 308 310 313 317 318 321 321 323 322 321 319 319 320 321 320 315 308 302 296 290 278 263 258 255 251 248 247 247 243 242 240 239 238 237 238 240 239 238 237 236
307 305 306 309 310 314 319 320 322 323 325 324 325 323 324 325 326 327 323 316 304 297 294 281 268 259 255 251 245 244 243 237 235 236 235 237 238 239 242 240 238 238 238
308 306 308 310 312 316 320 322 324 325 327 327 328 327 328 330 331 331 328 323 313 304 297 289 275 261 253 248 244 241 234 229 229 231 233 234 235 237 240 240 240 240 242